Other Public Products
Issued by NWS Grand Forks, ND

Home | Current Version | Previous Version | Text Only | Print | Product List | Glossary Off
Versions: 1 2 3 4 5 6 7 8 9 10 11 12 13 14 15 16 17 18 19 20 21 22 23 24 25 26 27 28 29 30 31 32 33 34 35 36 37 38 39 40 41 42 43 44 45 46 47 48 49 50

892
FPUS83 KFGF 231731
OPUFGF
PRAIRIE TO PINES WEATHER ROUNDUP
NATIONAL WEATHER SERVICE EASTERN NORTH DAKOTA/GRAND FORKS ND
1200 PM CDT THU MAR 23 2017

 **SATELLITE DATA USED TO AUGMENT SKY COVER AT AUTOMATED STATIONS**
 *****  WEATHER ACROSS EASTERN NORTH DAKOTA  *****

CITY           SKY/WX    TMP DP  RH WIND       PRES   REMARKS
GRAND FORKS    LGT RAIN  36  33  89 S16       29.83R
GRAND FORKS AF LGT RAIN  34  31  88 SW10      29.84R
GRAND CITY NWS NOT AVBL
BUXTON         NOT AVBL
DEVILS LAKE    PTSUNNY   35  30  82 S8        29.81R
FARGO          PTSUNNY   40  29  64 SE20G28   29.82F
WAHPETON ARPT  FAIR      39  27  60 SE22      29.83F
$$

 *****  WEATHER ACROSS CENTRAL AND WESTERN NORTH DAKOTA  *****

CITY           SKY/WX    TMP DP  RH WIND       PRES   REMARKS
JAMESTOWN      PTSUNNY   41  36  82 S10       29.76F
BISMARCK       LGT RAIN  38  35  89 N5        29.78R FOG
MINOT          FAIR      45  34  65 NW6       29.75R
MINOT AFB      CLOUDY    39  35  84 CALM      29.75R
GARRISON         N/A     36  31  82 CALM      29.74F
WILLISTON      FAIR      43  36  76 E5        29.77R
DICKINSON      CLOUDY    51  34  52 N14       29.71F
HETTINGER      CLOUDY    44  40  85 NE13      29.71F
$$

 *****  OTHER OBSERVATIONS NORTHEAST NORTH DAKOTA  *****

CITY           SKY/WX    TMP DP  RH WIND       PRES   REMARKS
WALHALLA       NOT AVBL
LANGDON        NOT AVBL
CAVALIER       NOT AVBL
GRAFTON        FAIR      36  30  80 S13       29.85R
CANDO          NOT AVBL
FORT TOTTEN      N/A     33  31  94 S8        29.95S
ROLLA          FAIR      37  36  93 N9        29.76R
RUGBY            N/A     34  32  93 S7        29.78R
 ***** THE ABOVE OBSERVATIONS ARE NON NWS ARE NOT QUALITY
        CONTROLLED AND MAY MIS-REPORT RAIN FOR SNOW...
$$

 *****  OTHER OBSERVATIONS SOUTHEAST NORTH DAKOTA *****

CITY           SKY/WX    TMP DP  RH WIND       PRES   REMARKS
COOPERSTOWN    PTSUNNY   34  34 100 CALM      29.81R
VALLEY CITY    LGT RAIN  37  37 100 SE10      29.79S
OAKES          NOT AVBL
GWINNER        PTSUNNY   45  32  61 MISG      29.79S
SHEYENNE NWR     N/A     44  28  54 SE14      29.95S
BUFFALO        NOT AVBL
WYNDMERE         N/A     43  28  56 SE16        N/A
 ***** THE ABOVE OBSERVATIONS ARE NON NWS ARE NOT QUALITY
       CONTROLLED AND MAY MIS-REPORT RAIN FOR SNOW...
$$

  *****  WEATHER ACROSS NORTHERN MINNESOTA  *****

CITY           SKY/WX    TMP DP  RH WIND       PRES   REMARKS
FLAG ISLAND    FAIR      34  27  75 S8        29.84F
WARROAD        FAIR      39  28  65 S5        29.84F
ROSEAU         FAIR      39  30  70 S10       29.83S
HALLOCK        FAIR      36  30  80 S14       29.83R
THF RVR FALLS  MIX PCPN N/A N/A N/A S14       29.86
HALSTAD          N/A     40  32  74 S16         N/A
FOSSTON        LGT RAIN  34  28  80 S12       29.86S
BAUDETTE       FAIR      39  23  52 S14       29.86F
WASKISH        CLOUDY    39  25  56 SE13G21   29.87F
CROOKSTON      MIX PCPN  34  34 100 S13       29.86S WCI  25
$$
  *****  WEATHER ACROSS CENTRAL AND WEST MINNESOTA  *****

CITY           SKY/WX    TMP DP  RH WIND       PRES   REMARKS
BEMIDJI        LGT RAIN  37  26  65 S12       29.89S
PARK RAPIDS    MIX PCPN  37  23  56 S22G29    29.89F
WADENA         CLOUDY    37  25  60 SE15      29.89F
DETROIT LAKES  CLOUDY    37  27  65 SE14      29.86F
MOORHEAD       FAIR      37  27  65 SE18G25   29.82F
FERGUS FALLS   FAIR      39  25  56 S20G25    29.89F
ELBOW LAKE     FAIR      39  24  54 E21G30    29.85F HAZE
MORRIS MN      FAIR      39  25  56 SE25G32   29.85F
STAPLES        CLOUDY    37  21  52 SE15      29.91F
WHEATON        FAIR      41  25  52 SE22G28   29.85S
$$
  *****  WEATHER ELSEWHERE ACROSS MINNESOTA  *****

CITY           SKY/WX    TMP DP  RH WIND       PRES   REMARKS
DULUTH         CLOUDY    35  24  64 S14       30.03F
INTRNTL FALLS  FAIR      40  23  50 S10G22    29.92F
ELY            CLOUDY    34  23  64 S13G20    29.98F WCI  25
CLOQUET        CLOUDY    36  21  55 S9G16     30.01F
BRAINERD       CLOUDY    39  23  52 S17       29.98F
HIBBING        CLOUDY    33  20  58 S13G18    29.99F WCI  24
ALEXANDRIA     CLOUDY    38  23  55 SE16G24   29.91F
SAINT CLOUD    CLOUDY    40  25  55 S16       30.00F
MINNEAPOLIS    CLOUDY    39  23  52 S20G25    30.04F
$$

  *****  WEATHER ACROSS SOUTH DAKOTA  *****

CITY           SKY/WX    TMP DP  RH WIND       PRES   REMARKS
SIOUX FALLS    LGT RAIN  44  33  65 SE15G26   29.82F
BROOKINGS      CLOUDY    40  27  59 SE23      29.81F
WATERTOWN      CLOUDY    38  29  70 S20G29    29.79F
HURON          CLOUDY    43  29  57 S15G23    29.77S
SISSETON         N/A     40  30  67 S17       29.81F
ABERDEEN       CLOUDY    43  29  57 S14       29.76S
MITCHELL       CLOUDY    45  34  65 S17G28    29.77F
PIERRE         FAIR      55  37  50 S13       29.65F
MOBRIDGE       FAIR      51  33  50 SE7       29.68F
RAPID CITY     FAIR      57  42  57 N14       29.64S
$$

  *****  SOME WEATHER IN NEARBY STATES *****

CITY           SKY/WX    TMP DP  RH WIND       PRES   REMARKS
GLASGOW MT     FAIR      52  30  43 NW13      29.78R
GREAT FALLS MT FAIR      50  22  33 W17G29    29.85S
CHEYENNE WY    FAIR      65  24  21 MISG      29.68F
SCOTTSBLUFF NE FAIR      54  38  54 CALM      29.65F
OMAHA NE       CLOUDY    56  35  45 S25       29.89F
DES MOINES IA  CLOUDY    47  32  56 SE20      30.03F
DAVENPORT IA   CLOUDY    40  26  57 S17       30.23F
CHICAGO IL     FAIR      44  21  40 SE15      30.34F
EAU CLAIRE WI  CLOUDY    38  19  46 S14G22    30.11F
LA CROSSE WI   CLOUDY    41  21  44 S14       30.15F
$$

  *****  SOME NATIONAL WEATHER *****

CITY           SKY/WX    TMP DP  RH WIND       PRES   REMARKS
LA GUARDIA NY  FAIR      36   0  21 NW15G21   30.58F
RALEIGH NC     FAIR      50  18  28 VRB6      30.59F
ATLANTA GA     FAIR      59  37  44 E14G22    30.44S
NEW ORLEANS LA FAIR      80  60  50 SE13      30.21F
OKLAHOMA CITY  FAIR      72  57  59 S24G33    29.95F
ALBUQUERQUE NM FAIR      65  22  19 SW20G31   29.82F
SALT LAKE CITY RAIN      40  37  89 NW17      29.82R FOG
LOS ANGELES CA FAIR      63  38  39 W15G21    30.10R
BOISE ID       FAIR      45  30  55 NW21      30.02R
SEATTLE WA     PTSUNNY   47  38  71 SE9       30.08S
$$

*** WEATHER ACROSS MANITOBA...SASKATCHEWAN AND ONTARIO ***
                ***ONTARIO***

CITY           SKY/WX    TMP DP  RH WIND       PRES   REMARKS
GERALDTON      FLURRIES  32  19  59 S20G32    30.05F WCI  20
THUNDER BAY    CLOUDY    34  27  75 S9        30.10F
SIOUX LOOKOUT  CLOUDY    36  23  60 SW14G21   29.87
TORONTO        PTSUNNY   32  10  40 SE7       30.56F
BIG TROUT LK   CLOUDY    27  23  86 S14G21    29.73F WCI  15
PICKLE LAKE    CLOUDY    28  23  80 S13G23    29.82F WCI  18
DRYDEN         CLOUDY    37  23  56 S20G26    29.85F
KENORA         PTSUNNY   37  23  56 S17G25    29.82F
$$
                *** MANITOBA***

CITY           SKY/WX    TMP DP  RH WIND       PRES   REMARKS
BRANDON        PTSUNNY   32  28  86 W12       29.76R WCI  23
DAUPHIN        SUNNY     37  28  70 W16       29.75R
ISLAND LAKE    LGT SNOW  30  28  93 SW12G18   29.60F WCI  21
PILOT MOUND      N/A     34  30  86 SW7         N/A
THE PAS        CLOUDY    25  19  80 NW15      29.74R WCI  12
THOMPSON       FLURRIES  27  21  80 N12       29.65R WCI  16
WINNIPEG       PTSUNNY   36  28  75 S18       29.79R
LYNN LAKE      FLURRIES  23  16  74 N14G20    29.77R WCI  11
CHURCHILL      CLOUDY    12   9  85 N21G29    29.80R WCI  -6
GILLAM         LGT SNOW  25  21  86 NE8       29.66S WCI  16
$$
                ***SASKATCHEWAN***

CITY           SKY/WX    TMP DP  RH WIND       PRES   REMARKS
ESTEVAN        PTSUNNY   36  32  87 W10       29.77R
KINDERSLEY     MOSUNNY   34  25  69 NE5       29.79R
LLOYDMINSTER   CLOUDY    25  25 100 NE6       29.80R FOG     WCI  18
PRINCE ALBERT  PTSUNNY   28  19  69 N6        29.83R WCI  22
REGINA         MOSUNNY   36  30  80 N8        29.79S
YORKTON        SUNNY     32  25  74 NW15      29.78R W



USA.gov is the U.S. government's official web portal to all federal, state and local government web resources and services.